Location: Taupo
(38.6830°S, 176.0830°E)
Time: 19:18:27
(UTC+13:00)

Cosmos 1386 Rocket - Pass Details

Date: 24 January 2019
Orbit: 930 x 1005 km, 83.0° (Epoch: 15 February)

Event Time Altitude Azimuth Distance (km) Brightness Sun altitude
Exits shadow 23:09:17 35° 345° (NNW) 1,509 5.2 -23.6°
Maximum altitude 23:12:05 79° 264° (W) 980 4.5 -24.0°
Drops below altitude 10° 23:18:14 10° 176° (S) 2,687 7.5 -24.6°
Sets 23:20:44 0° 174° (S) 3,632 8.2 -24.9°
